AO-07 1 07530U 74089B 16210.56806938 -.00000027 00000-0 10520-3 0 9999 2 07530 101.5779 180.3223 0011561 229.6144 245.6361 12.53622245908307 FO-29 1 24278U 96046B 16210.21128237 -.00000016 00000-0 16433-4 0 9993 2 24278 98.5843 130.0588 0351398 96.3814 267.7459 13.53069530985060 RS-22 1 27939U 03042A 16210.42202227 .00000139 00000-0 33458-4 0 9990 2 27939 97.8944 0.5195 0013333 168.2263 249.9782 14.66428101685861 AO-73 1 39444U 13066AE 16209.69629138 .00000296 00000-0 43770-4 0 9994 2 39444 97.6777 261.4862 0057435 247.8644 111.6466 14.81111878143572 EO-79 1 40025U 14033R 16210.61553817 .00000313 00000-0 40159-4 0 9998 2 40025 97.9248 116.0593 0011286 291.4935 68.5077 14.88061126114363 XW-2A 1 40903U 15049E 16210.58904761 .00002254 00000-0 65020-4 0 9995 2 40903 97.4450 226.2447 0015379 354.0728 6.0331 15.36696023 47913 XW-2C 1 40906U 15049H 16210.62025705 .00000841 00000-0 50235-4 0 9997 2 40906 97.4537 216.8084 0013970 252.7186 107.2517 15.13704418 47273 LILACSAT-2 1 40908U 15049K 16210.59445877 .00000444 00000-0 29063-4 0 9995 2 40908 97.4603 216.6500 0014864 246.2133 113.7540 15.12614316 47244 UO-11 1 14781U 84021B 16210.60348882 .00000096 00000-0 18239-4 0 9997 2 14781 97.7459 261.3323 0008745 169.6430 190.4966 14.82770239742390 LO-19 1 20442U 90005G 16209.77782625 -.00000006 00000-0 13958-4 0 9995 2 20442 98.5441 144.1574 0012449 31.3675 328.8249 14.32823582385163 AO-27 1 22825U 93061C 16209.80854517 .00000012 00000-0 22166-4 0 9998 2 22825 098.7624 166.3137 0008045 191.6578 168.4419 14.29962412190775 IO-26 1 22826U 93061D 16209.91371589 .00000009 00000-0 20910-4 0 9995 2 22826 098.7567 166.5389 0008741 182.6377 177.4761 14.30287634190973 GO-32 1 25397U 98043D 16209.90568207 -.00000006 00000-0 16029-4 0 9994 2 25397 098.5690 153.7957 0000927 159.5570 200.5646 14.23598827937430 NO-44 1 26931U 01043C 16210.45107477 -.00000027 00000-0 21334-4 0 9991 2 26931 67.0494 206.4499 0006186 260.4032 99.6370 14.30416859774042 SO-50 1 27607U 02058C 16210.85738269 .00000162 00000-0 23111-4 0 9996 2 27607 64.5566 33.5275 0063714 207.8633 151.9552 14.75183300731417 CO-55 1 27844U 03031E 16209.98325405 .00000057 00000-0 45725-4 0 9995 2 27844 98.6924 217.6837 0009229 198.2008 161.8841 14.21964565678248 CO-57 1 27848U 03031J 16209.96667610 .00000049 00000-0 42248-4 0 9992 2 27848 098.7020 217.7790 0009000 207.0595 153.0115 14.21589447678100 CO-65 1 32785U 08021C 16210.60368452 .00000292 00000-0 37839-4 0 9997 2 32785 97.6001 243.0918 0013922 153.9758 206.2161 14.87611352446787 PRISM 1 33493U 09002B 16210.83591410 .00000887 00000-0 86734-4 0 9999 2 33493 98.2112 72.8810 0016920 70.9804 289.3247 14.95025149407454 TISAT-1 1 36799U 10035E 16210.35672866 .00000406 00000-0 48321-4 0 9998 2 36799 98.0338 321.2783 0011420 315.1651 44.8643 14.89884344327557 ALMASAT-1 1 38078U 12006B 16209.69232311 .00013717 34258-5 19486-3 0 9997 2 38078 69.4445 275.0354 0375301 43.2339 319.7631 15.04837958235672 DUCHIFAT-1 1 40021U 14033M 16210.66901810 .00000438 00000-0 52161-4 0 9993 2 40021 97.9281 117.2921 0011802 289.4575 70.5366 14.89376207114437 NANOSATCBR1 1 40024U 14033Q 16210.66646734 .00000378 00000-0 46477-4 0 9993 2 40024 97.9255 116.6365 0011072 289.6839 70.3182 14.88776647114402 DTUSAT-2 1 40030U 14033W 16210.27087516 .00000316 00000-0 40882-4 0 9990 2 40030 97.9227 115.1321 0010671 286.0989 73.9052 14.87694239114281 ANTELSAT 1 40034U 14033AA 16210.79155472 .00000273 00000-0 48910-4 0 9990 2 40034 97.8982 97.9973 0057850 252.2045 107.2847 14.73427021113303 MET-2/21 1 22782U 93055A 16210.37862697 -.00000018 00000-0 -29625-4 0 9990 2 22782 82.5493 280.5439 0021148 258.3292 150.9267 13.83790323156913 NOAA-15 1 25338U 98030A 16210.76856056 .00000079 00000-0 33276-4 0 9995 2 25338 98.7826 215.0020 0011591 67.9731 292.3165 14.25743728947239 NOAA-18 1 28654U 05018A 16210.86167100 .00000050 00000-0 27147-4 0 9998 2 28654 99.1975 218.8755 0013226 257.8458 102.1714 14.12296552576614 NOAA-19 1 33591U 09005A 16210.82207098 .00000123 00000-0 67176-4 0 9998 2 33591 99.0423 167.9424 0014973 100.5500 259.7836 14.12092472385501 HUBBLE 1 20580U 90037B 16210.51861164 .00000594 00000-0 25971-4 0 9992 2 20580 28.4709 345.7645 0002617 295.2691 130.6048 15.08436935241352 ISS 1 25544U 98067A 16210.72553241 .00000963 00000-0 21250-4 0 9991 2 25544 51.6431 210.7749 0002162 83.8331 269.4538 15.54889966 11447 CO-58 1 28895U 05043F 16210.46797291 .00000169 00000-0 41312-4 0 9990 2 28895 97.8353 22.3341 0018400 88.4492 271.8818 14.63226527573145 AAUSAT2 1 32788U 08021F 16210.65513862 .00000770 00000-0 78660-4 0 9990 2 32788 97.6004 252.1528 0013504 127.8009 232.4436 14.93298714447389 DO-64 1 32789U 08021G 16209.86452145 .00001435 00000-0 10970-3 0 9996 2 32789 097.6017 268.3766 0014449 120.9538 239.3110 15.03421824448015 CO-66 1 32791U 08021J 16210.15943758 .00000386 00000-0 45669-4 0 9996 2 32791 97.6007 245.9676 0014556 144.7417 215.4767 14.89827430446890 RS-30 1 32953U 08025A 16210.65316945 .00000003 00000-0 -45682-4 0 9999 2 32953 82.5017 80.8685 0018079 273.1823 86.7188 12.43070436371226 JUGNU 1 37839U 11058B 16209.49621942 .00000309 00000-0 22647-4 0 9997 2 37839 19.9606 259.1765 0018831 203.9862 289.3827 14.12547046247735 SRMSAT 1 37841U 11058D 16209.59135307 .00000304 00000-0 22058-4 0 9997 2 37841 19.9723 293.6136 0011878 114.9902 19.3316 14.10545539247392 AO-71 1 37854U 11061E 16209.86194049 .00001341 00000-0 82068-4 0 9992 2 37854 101.7011 272.9906 0172575 313.7893 044.9149 15.02405275257754 HRBE 1 37855U 11061F 16209.91045140 .00001362 00000-0 81733-4 0 9997 2 37855 101.7150 271.1050 0185985 318.1786 040.5337 15.01337081257635 HORYU-2 1 38340U 12025D 16210.21198107 .00000266 00000-0 47629-4 0 9993 2 38340 98.3575 197.0887 0010436 239.0428 120.9754 14.75070138225529 RS-40 1 38735U 12041C 16210.61093150 .00000016 00000-0 46949-4 0 9992 2 38735 82.4771 165.9444 0017588 17.4302 342.7378 12.42572323181506 BEESAT-3 1 39134U 13015E 16210.21138052 .00001716 00000-0 98425-4 0 9999 2 39134 64.8683 190.8726 0011703 296.6913 63.3014 15.16157766180335 BEESAT-2 1 39136U 13015G 16210.21695532 .00001261 00000-0 79981-4 0 9993 2 39136 64.8691 197.3730 0010690 302.1950 57.8137 15.13785489180218 ZACUBE-1 1 39417U 13066B 16209.89979285 .00000244 00000-0 37856-4 0 9998 2 39417 097.6766 261.0264 0058195 249.3556 110.1411 14.80435130144793 TRITON-1 1 39427U 13066M 16210.14414404 .00000192 00000-0 39369-4 0 9999 2 39427 97.6647 240.8259 0113443 306.7581 52.3251 14.67223893143520 GOMX-1 1 39430U 13066Q 16210.75730181 .00000284 00000-0 61105-4 0 9998 2 39430 97.6678 228.5395 0152179 344.9137 14.7520 14.58635661142780 LO-74 1 39440U 13066AA 16210.18767765 .00000215 00000-0 37718-4 0 9991 2 39440 97.6705 253.1559 0079552 270.8463 88.3632 14.75195667144329 SPROUT 1 39770U 14029E 16210.79202059 .00000862 00000-0 10617-3 0 9990 2 39770 97.8734 307.5570 0008104 313.7852 46.2657 14.85490493118114 EO-80 1 40032U 14033Y 16210.29881327 .00000314 00000-0 40642-4 0 9998 2 40032 97.9234 115.1690 0010653 286.1861 73.8182 14.87627335114286 VELOX-1 1 40057U 14034E 16210.80263914 .00000436 00000-0 69871-4 0 9999 2 40057 98.1949 300.2274 0011553 21.5828 338.5858 14.76760983112024 DAURIA DX 1 1 40071U 14037C 16210.76283571 .00000207 00000-0 34227-4 0 9997 2 40071 98.3318 303.2741 0009066 20.2683 339.8892 14.80844104111108 UKUBE-1 1 40074U 14037F 16210.83800560 .00000438 00000-0 60885-4 0 9996 2 40074 98.3368 305.6654 0005195 29.6050 330.5447 14.83128218111248 HODOYOSHI-1 1 40299U 14070B 16210.83732719 .00000972 00000-0 46305-4 0 9996 2 40299 97.4280 292.1708 0014372 140.4107 342.3424 15.21431549 95763 CHUBUSAT-1 1 40300U 14070C 16210.82355979 .00001195 00000-0 58435-4 0 9992 2 40300 97.4235 290.2695 0021809 148.9433 321.0930 15.19950633 95659 QSAT-EOS 1 40301U 14070D 16210.80846766 .00002494 00000-0 11327-3 0 9991 2 40301 97.4177 289.6418 0029714 149.1350 330.8177 15.21327451 95632 FIREBIRD FU3 1 40377U 15003B 16210.54274116 .00001623 00000-0 76870-4 0 9994 2 40377 99.0899 325.2258 0142976 353.6745 6.2671 15.12846943 82034 FIREBIRD FU4 1 40378U 15003C 16210.53883159 .00001643 00000-0 77680-4 0 9999 2 40378 99.0901 325.2375 0143198 353.6289 6.3112 15.12857741 82038 GRIFEX 1 40379U 15003D 16210.25924137 .00001347 00000-0 67246-4 0 9999 2 40379 99.0906 323.9288 0147470 358.5250 1.5520 15.11025498 81934 NO-84 1 40654U 15025D 16210.35706596 .00007812 00000-0 16762-3 0 01853 2 40654 054.9962 236.5717 0205232 174.6950 185.6201 15.26550877030320 NO-83 1 40655U 15025E 16210.32641333 .00010779 00000-0 20754-3 0 02019 2 40655 054.9836 228.8903 0185831 177.9015 182.2668 15.31958687030408 DEORBITSAIL 1 40719U 15032E 16209.77265365 .00000462 00000-0 75168-4 0 9994 2 40719 98.0124 101.0399 0018068 104.5648 255.7567 14.75604059 56471 NUDT-PHONESAT 1 40900U 15049B 16210.58740367 .00002266 00000-0 11740-3 0 9994 2 40900 97.4452 217.5867 0013085 273.1092 86.8644 15.17140576 47355 XW-2D 1 40907U 15049J 16210.68635748 .00000552 00000-0 30566-4 0 9992 2 40907 97.4511 216.7331 0013215 251.1031 108.9284 15.13753924 47280 XW-2F 1 40910U 15049M 16210.57478654 .00001304 00000-0 74767-4 0 9992 2 40910 97.4533 216.8571 0014342 249.6324 110.3367 15.14257356 47169 XW-2B 1 40911U 15049N 16210.62021448 .00000886 00000-0 52704-4 0 9995 2 40911 97.4551 216.8670 0013250 250.9641 109.0155 15.13733813 47171 DCBB 1 40912U 15049P 16210.74058520 .00001679 00000-0 90167-4 0 9996 2 40912 97.4524 217.9116 0014649 245.3157 223.7322 15.16218360 47259 TW-1C 1 40926U 15051B 16210.80620942 .00005874 00000-0 16362-3 0 9999 2 40926 97.2715 247.2794 0012121 257.7499 195.9576 15.37106605 47152 TW-1A 1 40928U 15051D 16210.83679178 .00002710 00000-0 85746-4 0 9998 2 40928 97.2670 246.2413 0012248 280.4421 133.9519 15.33573802 47106 IO-86 1 40931U 15052B 16210.62208594 .00000668 00000-0 40045-5 0 9994 2 40931 5.9998 19.7160 0013824 344.9400 15.0356 14.76470930 45061 GomX-3 1 40949U 98067HA 16210.75854226 .00065386 00000-0 27487-3 0 9994 2 40949 51.6336 178.4883 0011401 31.1945 329.0262 15.84649758 46642 LQSat 1 40958U 15057A 16210.75185787 .00000089 00000-0 21671-4 0 9990 2 40958 98.0127 285.0955 0018972 25.4251 334.7873 14.72884280 43506 AO-85 1 40967U 15058D 16210.27625917 .00000123 00000-0 32137-4 0 01992 2 40967 064.7782 121.2370 0198963 192.4228 167.1944 14.75070019029335 ATHENOXAT-1 1 41168U 15077C 16210.81001157 .00002270 00000-0 95353-4 0 9993 2 41168 14.9877 9.4122 0012848 218.6334 359.2066 15.10143724 34057 ChubuSat-2 1 41338U 16012B 16209.86122937 .00000482 00000-0 31549-4 0 9995 2 41338 031.0041 011.6321 0013867 089.3411 270.8813 14.99430323024266 ChubuSat-3 1 41339U 16012C 16210.83450586 .00000453 00000-0 29076-4 0 9999 2 41339 31.0127 5.1489 0013539 105.9027 254.3110 14.99659123 24380 Horyu-4 1 41340U 16012D 16210.46166354 .00000708 00000-0 48591-4 0 9993 2 41340 31.0060 6.8723 0014168 106.6915 253.5277 15.00092418 24353 OUFTI-1 1 41458U 16025C 16210.80921098 .00000609 00000-0 39270-4 0 9993 2 41458 98.2062 223.6872 0175253 288.8007 69.4276 15.01302448 14026 e-st@r-II 1 41459U 16025D 16210.47615323 .00000725 00000-0 45802-4 0 9995 2 41459 98.2065 223.3339 0174983 289.8382 68.4041 15.01276842 13971 AAUSAT4 1 41460U 16025E 16210.73445436 .00002029 00000-0 11823-3 0 9996 2 41460 98.2012 223.6067 0173922 288.8571 69.3817 15.01533344 14017 MinXSS 1 41474U 98067HU 16210.42038263 .00013770 00000-0 18085-3 0 9991 2 41474 51.6408 210.9828 0002291 349.9372 10.1574 15.58821650 11367 CADRE 1 41475U 98067HV 16210.51169590 .00027917 00000-0 33715-3 0 9995 2 41475 51.6390 210.0881 0003799 13.5832 346.5263 15.60505488 11381 NODES 1 1 41477U 98067HX 16210.50677318 .00011840 00000-0 16179-3 0 9991 2 41477 51.6394 210.8060 0001659 339.7485 20.3441 15.57919580 11286 NODES 2 1 41478U 98067HY 16210.37992161 .00011572 00000-0 15854-3 0 9994 2 41478 51.6393 211.4582 0001637 341.3096 18.7836 15.57873949 11260 NuSat1-LUSEX 1 41557U 16033B 16210.83654362 .00001971 00000-0 80484-4 0 9998 2 41557 97.4955 284.0624 0016454 69.2162 67.7093 15.25504604 9109 NuSat2 1 41558U 16033C 16210.90150133 .00001958 00000-0 80303-4 0 9999 2 41558 97.4981 284.1335 0016044 66.8465 36.3564 15.25364478 9112 Lapan A3 1 41603U 16040E 16210.91175137 .00000165 00000-0 11152-4 0 9995 2 41603 97.5081 269.8534 0014848 117.0541 340.1503 15.19073775 5575 Swayam 1 41607U 16040J 16209.90801656 .00002092 00000-0 10280-3 0 9999 2 41607 097.5059 268.8391 0016520 125.1739 235.1046 15.19064326005344 /EX